Location: Buisson
(44.2787°N, 4.9969°E)
Time: 00:29:21
(UTC+00:00)

FALCON 9 DEB - Pass Details

Date: 18 April 2021
Orbit: 368 x 387 km, 53.0° (Epoch: 08 May)

Event Time Altitude Azimuth Distance (km) Brightness Sun altitude
Exits shadow 03:17:15 10° 310° (NW) 1,364 5.5 -16.1°
Maximum altitude 03:20:14 56° 30° (NNE) 455 3.5 -15.6°
Drops below altitude 10° 03:23:18 10° 110° (ESE) 1,386 6.2 -15.2°
Sets 03:25:22 0° 115° (ESE) 2,239 7.2 -14.9°
